Location: Gairloch Mountain Observatory
(46.1383°N, 60.9640°W)
Time: 21:41:06
(UTC-04:00)

Daily predictions for brighter satellites

Satellite Brightness Start Highest point End
(mag) Time Altitude Azimuth Time Altitude Azimuth Time Altitude Azimuth
NOSS 3-2 (A) 4.3 18:01:01 10° WSW 18:06:56 54° NW 18:13:33 10° NE
MOS 1 4.3 18:02:33 10° SSE 18:08:10 70° ENE 18:13:51 10° N
MOS 1-B Rocket 3.9 18:04:45 10° SSE 18:10:51 80° ENE 18:16:29 10° NNW
Cosmos 1908 Rocket 3.9 18:07:22 10° SSE 18:11:37 45° E 18:15:52 10° NNE
Meteor 1-14 Rocket 4.4 18:07:42 10° S 18:13:26 64° E 18:19:20 10° NNE
YAOGAN 1 3.1 18:09:48 10° S 18:14:05 67° WSW 18:18:26 10° NNW
Cosmos 1733 Rocket 3.3 18:09:54 10° SSW 18:14:12 74° W 18:18:33 10° N
Okean 1 3.7 18:13:28 10° N 18:17:17 42° ENE 18:21:05 10° SSE
BREEZE-M DEB (TANK) 1.4 18:15:46 10° WNW 18:18:17 75° NNE 18:21:00 10° ESE
ATLAS CENTAUR R/B 2.6 18:19:25 10° NNW 18:22:50 24° NE 18:26:25 10° E
Cosmos 1452 Rocket 4.3 18:18:29 10° NNW 18:23:38 57° WSW 18:28:45 10° S
Cosmos 1891 Rocket 4.5 18:17:43 10° N 18:23:54 65° ENE 18:29:56 10° SSE
Cosmos 2034 Rocket 4.1 18:19:12 10° N 18:25:30 57° ENE 18:31:44 10° SSE
Cosmos 1048 Rocket 4.0 18:22:39 10° S 18:27:54 63° ESE 18:33:06 10° NNE
SKYMED 2 3.8 18:24:48 10° N 18:29:09 77° WNW 18:33:29 10° SSW
Meteor 1-18 Rocket 4.2 18:24:04 10° N 18:29:42 85° E 18:35:15 10° S
Landsat 4 3.6 18:27:57 10° NNE 18:31:43 65° ESE 18:35:26 10° S
EO 1 Del DPAF 3.3 18:28:06 10° NNE 18:31:53 53° E 18:35:36 10° S
Meteor 1-25 Rocket 4.2 18:27:56 10° S 18:33:28 83° E 18:39:06 10° NNE
Cosmos 1633 2.6 18:30:16 10° S 18:33:49 85° W 18:37:26 10° N
Cosmos 1975 Rocket 3.3 18:31:11 10° N 18:35:31 49° ENE 18:39:51 10° SSE
CZ-4 R/B 4.1 18:35:01 10° SSW 18:38:18 24° W 18:41:34 10° NW
Meteor 1-19 Rocket 4.4 18:32:57 10° N 18:38:20 49° ENE 18:43:42 10° SSE
FENGYUN 3A 4.5 18:36:58 10° S 18:42:15 56° W 18:47:37 10° NNW
USA 215 4.3 18:40:06 12° ENE 18:44:33 23° SE 18:49:35 10° S
Cosmos 1437 Rocket 2.9 18:40:34 10° S 18:44:35 60° E 18:48:39 10° NNE
Cosmos 1943 3.6 18:39:17 10° NNW 18:44:40 42° NE 18:50:01 10° SE
MTI 4.3 18:41:51 10° N 18:45:02 63° WNW 18:48:11 10° SSW
SeaSat 1 3.2 18:42:05 11° ESE 18:46:15 34° NE 18:50:41 10° NNW
SPOT 3 Rocket 3.9 18:42:17 10° S 18:47:29 72° WSW 18:52:43 10° NNW
Meteor 1-11 Rocket 4.2 18:46:38 10° SSE 18:51:45 38° E 18:57:00 10° NNE
Cosmos 1536 4.0 18:49:02 10° SE 18:52:11 22° E 18:55:21 10° NE
Cosmos 1378 Rocket 4.4 18:49:28 10° NNW 18:53:48 54° W 18:58:07 10° S
Cosmos 1184 Rocket 3.3 18:54:02 10° N 18:57:07 37° ENE 18:59:13 17° SE
Gbstr 26 Del rocket 3.0 18:55:52 10° SW 18:59:26 48° SE 19:01:22 25° E
Cosmos 2227 Rocket 4.2 18:55:57 10° WSW 19:00:46 28° NW 19:05:35 10° N
Resurs 01 Rocket 2.4 19:01:10 21° ESE 19:03:16 31° ENE 19:07:09 10° N
FengYun 1-2 T 4.4 18:58:22 10° S 19:03:52 78° WSW 19:09:23 10° NNW
ERS-2 2.3 19:01:49 10° S 19:05:29 76° WSW 19:09:11 10° NNW
Cosmos 1536 Rocket 4.2 19:01:59 10° N 19:05:59 33° ENE 19:07:54 23° ESE
SL-16 R/B 4.2 19:01:10 10° NW 19:06:01 30° WSW 19:10:50 10° SSW
Cosmos 1782 Rocket 3.7 19:05:25 10° SSW 19:09:50 77° W 19:14:16 10° N
Envisat 3.0 19:07:12 10° SSE 19:12:12 62° ENE 19:17:14 10° N
CRYOSAT 2 4.2 19:07:28 10° N 19:12:21 71° E 19:17:11 10° S
CENTAUR R/B 3.1 19:07:40 10° WSW 19:13:45 59° NW 19:20:48 10° NE
Cosmos 2297 Rocket 4.3 19:09:21 10° WSW 19:14:01 26° NW 19:18:44 10° N
CZ-4C R/B 2.9 19:07:31 10° NW 19:14:27 63° NE 19:20:07 20° ESE
OE (NEXTSAT) 4.5 19:13:30 10° WSW 19:17:02 62° SSE 19:17:56 43° ESE
Cosmos 494 Rocket 3.9 19:13:16 10° S 19:18:25 66° ESE 19:23:33 10° NNE
USA 267 3.9 19:16:33 22° ENE 19:20:20 43° NNE 19:26:24 10° NW
SL-8 R/B 3.8 19:16:45 10° W 19:21:32 68° N 19:23:41 32° ENE
FREGAT/IRIS 4.2 19:19:11 10° SSW 19:21:57 36° W 19:24:45 10° NNW
Meteor 1-23 Rocket 4.4 19:16:57 10° N 19:22:39 52° ENE 19:27:21 15° SSE
HJ-1C 3.9 19:19:22 10° S 19:22:45 61° W 19:26:09 10° NNW
Cosmos 1939 Rocket 3.2 19:23:39 40° E 19:24:17 43° ENE 19:28:11 10° N
Cosmos 1603 4.2 19:19:50 10° NNW 19:25:24 60° WSW 19:30:53 10° S
Cosmos 1110 Rocket 4.4 19:20:58 10° NNW 19:26:14 67° WSW 19:31:29 10° S
Tsikada Rocket 4.2 19:21:03 10° S 19:27:28 81° W 19:33:55 10° N
Thor Agena Rocket 3.3 19:27:58 10° NNE 19:33:05 78° ESE 19:38:07 10° SSW
COSMOS 2455 2.7 19:28:13 10° SSW 19:34:11 70° ESE 19:40:05 11° NE
Cosmos 2263 Rocket 2.1 19:32:02 10° S 19:37:28 59° ESE 19:42:42 11° NNE
Okean 2 Rocket 3.5 19:34:36 10° SSW 19:38:58 62° W 19:43:22 10° N
USA 186 1.8 19:39:20 71° N 19:39:20 71° N 19:42:22 10° N
SJ-6B 3.7 19:35:24 10° S 19:39:05 49° W 19:42:54 10° NNW
Meteor 1-4 Rocket 3.3 19:38:43 10° SSW 19:42:11 52° WNW 19:45:45 10° N
CZ-2D R/B 4.3 19:43:33 10° S 19:47:19 47° W 19:51:07 10° NNW
Cosmos 2151 Rocket 3.5 19:44:18 10° S 19:48:46 90° ESE 19:53:15 10° N
ARGOS 4.4 19:50:33 25° NE 19:50:33 25° NE 19:53:48 10° N
Cosmos 2279 Rocket 3.9 19:51:33 10° N 19:57:48 70° E 20:00:18 38° SSE
CZ-3B R/B 3.6 19:50:12 10° SW 20:00:13 77° SE 20:00:21 76° ESE
Alouette 2 Rocket 4.1 19:58:02 10° SSW 20:01:28 48° WNW 20:05:26 10° N
Spot 2 Rocket 3.4 20:00:17 49° SSE 20:01:42 89° ENE 20:06:49 10° NNW
YAOGAN 6 3.6 20:03:07 41° NNW 20:03:07 41° NNW 20:05:36 10° NNW
ATLAS CENTAUR R/B 2.1 19:57:57 10° NW 20:02:02 51° WSW 20:02:49 45° SSW
H-2A R/B 3.7 20:06:39 22° NNE 20:06:39 22° NNE 20:09:12 10° N
Resurs 1-3 4.5 20:16:54 39° SW 20:17:59 47° W 20:22:14 10° NNW
Cosmos 2082 Rocket 4.4 20:17:17 10° NNE 20:18:17 11° NNE 20:18:17 11° NNE
Cosmos 2251 Rocket 3.9 20:16:55 10° SW 20:22:04 60° WNW 20:27:17 10° NNE
NOAA 11 4.1 20:23:38 85° NNW 20:23:38 85° NNW 20:28:56 10° NNW
SeaSat 1 3.6 20:21:53 29° SSW 20:23:41 40° WSW 20:28:21 10° NW
Cosmos 1066 Rocket 4.4 20:20:40 10° N 20:25:32 60° NNE 20:25:32 60° NNE
USA 215 3.1 20:27:28 70° E 20:28:13 80° SE 20:34:46 10° SW
Resurs 01 Rocket 3.4 20:38:44 27° WSW 20:39:43 29° W 20:43:36 10° NW
COSMOS 2406 4.2 20:35:06 10° NNW 20:38:42 36° N 20:38:42 36° N
CZ-4C R/B 4.0 20:56:22 10° NW 21:02:56 38° WSW 21:05:22 31° SSW
USA 267 3.4 21:03:53 69° NW 21:03:53 69° NW 21:09:34 10° NW
Cosmos 2263 Rocket 4.0 21:17:09 10° WSW 21:21:48 26° NW 21:24:40 18° N
H-2A R/B 4.4 21:47:17 20° NNW 21:47:17 20° NNW 21:49:01 10° NNW
